N8XE-13 Weather Reports


time (UTC)temp
C
wind
direction
speed
KPH
gust
KPH
rain 1hr
cm
rain 24hr
cm
rain mn
cm
humidity
%
barometer
mb
20260903051422 26 289 0.0 0.0 0.00 0.00 0.00 82 1048.3
20260903050918 26 332 0.0 0.0 0.00 0.00 0.00 82 1048.4
20260903050416 26 236 0.0 0.0 0.00 0.00 0.00 82 1048.0
20260903045911 26 269 0.0 0.0 0.00 0.00 0.00 81 1048.3
20260903045407 26 237 0.0 0.0 0.00 0.00 0.00 82 1048.3
20260903044904 26 222 0.0 0.0 0.00 0.00 0.00 82 1048.2
20260903044403 26 222 0.0 0.0 0.00 0.00 0.00 82 1048.2
20260903043900 26 316 0.0 0.0 0.00 0.00 0.00 82 1048.1
20260903043355 26 218 0.0 0.0 0.00 0.00 0.00 82 1048.1
20260903042854 26 300 0.0 0.0 0.00 0.00 0.00 82 1048.2
20260903042349 26 252 0.0 0.0 0.00 0.00 0.00 83 1048.0
20260903041845 26 247 0.0 0.0 0.00 0.00 0.00 82 1048.1
20260903041341 26 316 0.0 0.0 0.00 0.00 0.00 83 1047.8
20260903040837 26 283 0.0 0.0 0.00 0.00 0.00 83 1048.1
20260903040335 26 242 0.0 0.0 0.00 0.00 0.00 83 1047.9
20260903035832 26 233 0.0 0.0 0.00 0.00 0.00 82 1048.3
20260903035327 26 263 0.0 0.0 0.00 0.00 0.00 82 1048.1
20260903034822 26 195 0.0 0.0 0.00 0.00 0.00 82 1048.2
20260903034317 26 286 0.0 0.0 0.00 0.00 0.00 82 1048.2
20260903033812 26 234 0.0 0.0 0.00 0.00 0.00 81 1048.1
20260903033307 26 254 0.0 0.0 0.00 0.00 0.00 81 1048.1
20260903032801 26 254 0.0 0.0 0.00 0.00 0.00 81 1048.1
20260903032258 27 283 0.0 0.0 0.00 0.00 0.00 81 1048.3
20260903031753 27 231 0.0 0.0 0.00 0.00 0.00 80 1048.5
20260903031252 27 272 0.0 0.0 0.00 0.00 0.00 80 1048.5
20260903030748 27 266 0.0 0.0 0.00 0.00 0.00 80 1048.3
20260903030244 27 268 0.0 0.0 0.00 0.00 0.00 79 1048.6
20260903025739 27 322 0.0 0.0 0.00 0.00 0.00 79 1048.6
20260903025234 27 327 0.0 0.0 0.00 0.00 0.00 79 1048.6
20260903024729 27 213 0.0 0.0 0.00 0.00 0.00 79 1048.6
20260903024228 27 287 0.0 0.0 0.00 0.00 0.00 79 1048.7
20260903023724 27 307 0.0 0.0 0.00 0.00 0.00 79 1048.5
20260903023220 27 277 0.0 0.0 0.00 0.00 0.00 78 1048.6
20260903022719 27 236 0.0 0.0 0.00 0.00 0.00 78 1048.8
20260903022218 27 253 0.0 0.0 0.00 0.00 0.00 78 1048.7
20260903021718 27 304 0.0 0.0 0.00 0.00 0.00 78 1048.7
20260903021213 27 302 0.0 0.0 0.00 0.00 0.00 77 1048.8
20260903020708 27 304 0.0 0.0 0.00 0.00 0.00 77 1048.7
20260903020203 27 227 0.0 0.0 0.00 0.00 0.00 77 1048.8
20260903015658 28 271 0.0 0.0 0.00 0.00 0.00 76 1048.8
20260903015154 28 285 0.0 0.0 0.00 0.00 0.00 76 1048.8
20260903014648 28 310 0.0 0.0 0.00 0.00 0.00 76 1048.5
20260903014148 28 295 0.0 0.0 0.00 0.00 0.00 75 1048.6
20260903013643 28 303 0.0 0.0 0.00 0.00 0.00 75 1048.5
20260903013142 28 232 0.0 0.0 0.00 0.00 0.00 75 1048.6
20260903012641 28 305 0.0 0.0 0.00 0.00 0.00 74 1048.6
20260903012140 28 306 0.0 0.0 0.00 0.00 0.00 74 1048.8
20260903011640 28 314 0.0 0.0 0.00 0.00 0.00 74 1048.6
20260903011135 28 272 0.0 0.0 0.00 0.00 0.00 73 1048.3
20260903010630 28 284 0.0 0.0 0.00 0.00 0.00 73 1048.5
20260903010129 29 224 0.0 0.0 0.00 0.00 0.00 72 1048.5
20260903005624 29 292 0.0 0.0 0.00 0.00 0.00 72 1048.2
20260903005119 29 271 0.0 0.0 0.00 0.00 0.00 71 1048.4
20260903004619 29 277 0.0 0.0 0.00 0.00 0.00 71 1048.1
20260903004114 29 267 0.0 0.0 0.00 0.00 0.00 70 1048.2
20260903003610 30 243 0.0 0.0 0.00 0.00 0.00 70 1048.4
20260903003105 30 229 0.0 0.0 0.00 0.00 0.00 69 1048.1
20260903002600 30 270 0.0 0.0 0.00 0.00 0.00 69 1048.2
20260903002054 30 300 0.0 0.0 0.00 0.00 0.00 68 1048.1
20260903001549 30 279 0.0 0.0 0.00 0.00 0.00 67 1048.1
20260903001049 30 233 0.0 0.0 0.00 0.00 0.00 67 1048.2
20260903000545 30 278 0.0 0.0 0.00 0.00 0.00 67 1048.1
20260903000044 30 226 0.0 0.0 0.00 0.00 0.00 66 1047.9
20260902235538 31 277 0.0 0.0 0.00 0.00 0.00 66 1048.2
20260902235033 31 245 0.0 0.0 0.00 0.00 0.00 65 1048.3
20260902234532 31 239 0.0 0.0 0.00 0.00 0.00 64 1048.0
20260902234031 31 248 0.0 0.0 0.00 0.00 0.00 63 1048.0
20260902233526 31 211 0.0 0.0 0.00 0.00 0.00 63 1048.0
20260902233021 32 223 0.0 1.6 0.00 0.00 0.00 62 1048.0
20260902232520 32 219 0.0 0.0 0.00 0.00 0.00 61 1048.0
20260902232014 32 223 0.0 0.0 0.00 0.00 0.00 60 1048.0
20260902231509 32 274 0.0 0.0 0.00 0.00 0.00 61 1048.1
20260902231003 32 221 0.0 0.0 0.00 0.00 0.00 59 1048.1
20260902230458 33 261 0.0 0.0 0.00 0.00 0.00 58 1048.1
20260902225957 32 216 0.0 1.6 0.00 0.00 0.00 58 1047.9
20260902225452 33 209 0.0 1.6 0.00 0.00 0.00 58 1048.2
20260902224952 33 188 0.0 0.0 0.00 0.00 0.00 56 1048.3
20260902224451 33 186 1.6 9.7 0.00 0.00 0.00 56 1048.1
20260902223948 33 289 0.0 1.6 0.00 0.00 0.00 55 1048.2
20260902223443 33 247 0.0 1.6 0.00 0.00 0.00 55 1048.1
20260902222941 33 244 0.0 1.6 0.00 0.00 0.00 55 1048.2
20260902222435 33 239 0.0 1.6 0.00 0.00 0.00 55 1048.1
20260902221935 33 173 0.0 1.6 0.00 0.00 0.00 54 1048.2
20260902221433 33 206 0.0 1.6 0.00 0.00 0.00 54 1048.2
20260902220929 33 232 0.0 1.6 0.00 0.00 0.00 53 1048.0
20260902220423 33 207 0.0 1.6 0.00 0.00 0.00 53 1048.1
20260902215918 34 160 0.0 4.8 0.00 0.00 0.00 52 1048.2
20260902215414 34 217 0.0 0.0 0.00 0.00 0.00 51 1048.4
20260902214910 34 218 0.0 3.2 0.00 0.00 0.00 51 1048.1
20260902214409 34 227 1.6 4.8 0.00 0.00 0.00 51 1048.1
20260902213903 35 233 0.0 1.6 0.00 0.00 0.00 52 1048.2
20260902213400 35 183 0.0 1.6 0.00 0.00 0.00 52 1048.2
20260902212858 34 255 0.0 3.2 0.00 0.00 0.00 53 1048.2
20260902212355 34 177 0.0 0.0 0.00 0.00 0.00 53 1048.2
20260902211851 34 217 1.6 3.2 0.00 0.00 0.00 54 1048.3
20260902211346 35 213 0.0 1.6 0.00 0.00 0.00 54 1048.4
20260902210841 35 245 0.0 1.6 0.00 0.00 0.00 54 1048.3
20260902210341 33 274 1.6 4.8 0.00 0.00 0.00 56 1048.2
20260902205839 33 205 0.0 3.2 0.00 0.00 0.00 56 1048.3
20260902205333 34 234 0.0 1.6 0.00 0.00 0.00 54 1048.5
20260902204829 35 207 1.6 1.6 0.00 0.00 0.00 52 1048.5
20260902204324 35 246 0.0 1.6 0.00 0.00 0.00 50 1048.6
20260902203820 35 195 0.0 1.6 0.00 0.00 0.00 49 1048.5
20260902203315 35 243 0.0 14.5 0.00 0.00 0.00 48 1048.5
20260902202814 35 214 1.6 1.6 0.00 0.00 0.00 46 1048.5
20260902202311 35 271 1.6 4.8 0.00 0.00 0.00 49 1048.7
20260902201807 35 192 1.6 8.0 0.00 0.00 0.00 47 1048.7
20260902201306 35 216 0.0 4.8 0.00 0.00 0.00 50 1048.8
20260902200801 35 341 0.0 1.6 0.00 0.00 0.00 50 1048.9
20260902200257 35 211 1.6 3.2 0.00 0.00 0.00 52 1048.9
20260902195752 35 228 1.6 3.2 0.00 0.00 0.00 51 1048.9
20260902195251 35 220 1.6 11.3 0.00 0.00 0.00 51 1048.8
20260902194746 35 229 0.0 3.2 0.00 0.00 0.00 52 1048.8
20260902194241 35 255 0.0 3.2 0.00 0.00 0.00 51 1049.0
20260902193737 35 327 0.0 1.6 0.00 0.00 0.00 50 1049.1
20260902193232 36 245 0.0 1.6 0.00 0.00 0.00 50 1049.0
20260902192730 35 225 0.0 3.2 0.00 0.00 0.00 49 1049.0
20260902192229 35 299 0.0 1.6 0.00 0.00 0.00 48 1049.2
20260902191725 36 311 0.0 0.0 0.00 0.00 0.00 48 1049.2
20260902191219 35 234 0.0 0.0 0.00 0.00 0.00 51 1049.4
20260902190715 36 309 0.0 1.6 0.00 0.00 0.00 51 1049.2
20260902190215 36 252 0.0 1.6 0.00 0.00 0.00 49 1049.3
20260902185710 35 244 0.0 1.6 0.00 0.00 0.00 49 1049.5
20260902185208 35 206 0.0 1.6 0.00 0.00 0.00 51 1049.3
20260902184701 35 215 0.0 8.0 0.00 0.00 0.00 50 1049.5
20260902184157 35 207 0.0 3.2 0.00 0.00 0.00 49 1049.5
20260902183653 36 231 1.6 1.6 0.00 0.00 0.00 52 1049.6
20260902183149 35 270 0.0 11.3 0.00 0.00 0.00 55 1049.6
20260902182645 34 305 0.0 0.0 0.00 0.00 0.00 55 1049.9
20260902182141 34 317 0.0 1.6 0.00 0.00 0.00 55 1049.8
20260902181636 35 350 1.6 8.0 0.00 0.00 0.00 53 1049.7
20260902181136 35 272 0.0 1.6 0.00 0.00 0.00 52 1049.8
20260902180636 35 306 0.0 1.6 0.00 0.00 0.00 51 1049.7
20260902180132 34 336 0.0 0.0 0.00 0.00 0.00 54 1049.7
20260902175631 34 298 0.0 0.0 0.00 0.00 0.00 54 1049.9
20260902175127 35 336 0.0 0.0 0.00 0.00 0.00 53 1050.0
20260902174624 35 238 0.0 1.6 0.00 0.00 0.00 53 1050.2
20260902174119 35 222 0.0 0.0 0.00 0.00 0.00 52 1050.3
20260902173614 35 326 0.0 1.6 0.00 0.00 0.00 54 1050.1
20260902173109 35 254 0.0 0.0 0.00 0.00 0.00 55 1050.5
20260902172602 35 254 0.0 1.6 0.00 0.00 0.00 54 1050.5
20260902172057 34 312 0.0 1.6 0.00 0.00 0.00 55 1050.6
20260902171553 34 295 0.0 1.6 0.00 0.00 0.00 53 1050.5
20260902171049 35 313 0.0 0.0 0.00 0.00 0.00 54 1050.6
20260902170544 34 238 0.0 1.6 0.00 0.00 0.00 56 1050.5
20260902170040 33 240 0.0 8.0 0.00 0.00 0.00 56 1050.5
20260902165534 33 217 0.0 0.0 0.00 0.00 0.00 57 1050.7
20260902165033 33 215 0.0 1.6 0.00 0.00 0.00 56 1050.7
20260902164529 33 315 0.0 4.8 0.00 0.00 0.00 58 1050.7
20260902164028 33 204 0.0 0.0 0.00 0.00 0.00 58 1050.5
20260902163524 33 227 0.0 0.0 0.00 0.00 0.00 58 1050.6
20260902163022 33 239 0.0 1.6 0.00 0.00 0.00 58 1050.6
20260902162522 32 340 0.0 1.6 0.00 0.00 0.00 60 1050.6
20260902162017 32 244 0.0 0.0 0.00 0.00 0.00 59 1050.6
20260902161512 32 246 0.0 1.6 0.00 0.00 0.00 60 1050.5
20260902161008 32 221 0.0 4.8 0.00 0.00 0.00 61 1050.5
20260902160503 32 291 0.0 0.0 0.00 0.00 0.00 61 1050.7
20260902160002 32 205 1.6 8.0 0.00 0.00 0.00 62 1050.8
20260902155456 32 334 0.0 0.0 0.00 0.00 0.00 61 1050.7
20260902154950 31 317 0.0 0.0 0.00 0.00 0.00 63 1050.9
20260902154446 31 315 0.0 0.0 0.00 0.00 0.00 63 1050.8
20260902153946 32 258 0.0 0.0 0.00 0.00 0.00 63 1051.0
20260902153444 31 256 0.0 1.6 0.00 0.00 0.00 64 1050.9
20260902152939 31 297 0.0 1.6 0.00 0.00 0.00 64 1050.9
20260902152436 31 237 0.0 4.8 0.00 0.00 0.00 65 1051.0
20260902151931 31 328 0.0 0.0 0.00 0.00 0.00 63 1050.8
20260902151428 31 318 0.0 0.0 0.00 0.00 0.00 66 1050.9
20260902150926 31 322 0.0 1.6 0.00 0.00 0.00 67 1050.9
20260902150423 30 226 0.0 1.6 0.00 0.00 0.00 67 1050.9
20260902145922 30 228 0.0 1.6 0.00 0.00 0.00 67 1051.1
20260902145418 30 304 0.0 1.6 0.00 0.00 0.00 68 1050.7
20260902144913 30 307 0.0 0.0 0.00 0.00 0.00 68 1050.7
20260902144409 30 208 0.0 0.0 0.00 0.00 0.00 69 1051.0
20260902143909 30 346 0.0 3.2 0.00 0.00 0.00 70 1050.9
20260902143404 30 268 0.0 8.0 0.00 0.00 0.00 69 1050.9
20260902142859 29 331 0.0 0.0 0.00 0.00 0.00 70 1050.9
20260902142355 29 310 0.0 1.6 0.00 0.00 0.00 71 1050.9
20260902141850 29 298 0.0 0.0 0.00 0.00 0.00 72 1050.8
20260902141345 28 318 0.0 0.0 0.00 0.00 0.00 74 1050.8
20260902140844 28 319 0.0 0.0 0.00 0.00 0.00 75 1050.8
20260902140340 28 267 0.0 1.6 0.00 0.00 0.00 75 1050.7
20260902135840 28 316 0.0 0.0 0.00 0.00 0.00 75 1050.6
20260902135336 28 290 0.0 0.0 0.00 0.00 0.00 75 1050.8
20260902134834 27 293 0.0 0.0 0.00 0.00 0.00 77 1050.9
20260902134330 27 302 0.0 0.0 0.00 0.00 0.00 77 1050.7
20260902133826 27 308 0.0 0.0 0.00 0.00 0.00 78 1050.7
20260902133325 26 249 0.0 0.0 0.00 0.00 0.00 80 1050.8
20260902132820 26 241 0.0 0.0 0.00 0.00 0.00 80 1050.8
20260902132316 26 252 0.0 0.0 0.00 0.00 0.00 81 1050.7
20260902131811 26 300 0.0 0.0 0.00 0.00 0.00 82 1050.6
20260902131308 26 252 0.0 0.0 0.00 0.00 0.00 82 1050.8
20260902130807 25 211 0.0 1.6 0.00 0.00 0.00 83 1050.8
20260902130303 25 215 0.0 0.0 0.00 0.00 0.00 83 1050.6
20260902125758 25 317 0.0 0.0 0.00 0.00 0.00 83 1050.8
20260902125254 25 211 0.0 0.0 0.00 0.00 0.00 83 1050.5
20260902124750 25 249 0.0 0.0 0.00 0.00 0.00 83 1050.5
20260902124245 25 212 0.0 0.0 0.00 0.00 0.00 82 1050.5
20260902123740 25 223 0.0 0.0 0.00 0.00 0.00 82 1050.5
20260902123237 25 324 0.0 0.0 0.00 0.00 0.00 83 1050.6
20260902122735 25 238 0.0 0.0 0.00 0.00 0.00 83 1050.5
20260902122232 25 199 0.0 0.0 0.00 0.00 0.00 84 1050.0
20260902121731 25 278 0.0 0.0 0.00 0.00 0.00 84 1050.2
20260902121227 24 267 0.0 0.0 0.00 0.00 0.00 85 1050.2
20260902120722 24 310 0.0 1.6 0.00 0.00 0.00 86 1050.5
20260902120218 23 218 0.0 0.0 0.00 0.00 0.00 86 1050.5
20260902115718 23 28 0.0 0.0 0.00 0.00 0.00 87 1050.5
20260902115214 23 314 0.0 0.0 0.00 0.00 0.00 88 1050.2
20260902114710 23 287 0.0 0.0 0.00 0.00 0.00 88 1050.0
20260902114206 23 297 0.0 0.0 0.00 0.00 0.00 88 1050.2
20260902113700 23 323 0.0 0.0 0.00 0.00 0.00 88 1050.5
20260902113155 23 277 0.0 0.0 0.00 0.00 0.00 88 1050.3
20260902112655 23 314 0.0 0.0 0.00 0.00 0.00 89 1050.2
20260902112153 23 312 0.0 0.0 0.00 0.00 0.00 89 1050.3
20260902111648 23 236 0.0 0.0 0.00 0.00 0.00 88 1049.9
20260902111143 23 236 0.0 0.0 0.00 0.00 0.00 88 1050.1
20260902110639 23 235 0.0 0.0 0.00 0.00 0.00 88 1050.2
20260902110135 23 251 0.0 0.0 0.00 0.00 0.00 88 1050.0
20260902105634 23 251 0.0 0.0 0.00 0.00 0.00 88 1050.1
20260902105130 23 293 0.0 0.0 0.00 0.00 0.00 88 1049.9
20260902104625 23 227 0.0 0.0 0.00 0.00 0.00 88 1049.9
20260902104120 23 303 0.0 0.0 0.00 0.00 0.00 88 1049.9
20260902103619 23 242 0.0 0.0 0.00 0.00 0.00 88 1050.1
20260902103115 23 247 0.0 0.0 0.00 0.00 0.00 88 1049.9
20260902102611 23 299 0.0 0.0 0.00 0.00 0.00 89 1049.8
20260902102108 23 316 0.0 0.0 0.00 0.00 0.00 89 1049.9
20260902101603 23 309 0.0 0.0 0.00 0.00 0.00 89 1050.0
20260902101103 23 326 0.0 0.0 0.00 0.00 0.00 89 1050.0
20260902100557 23 329 0.0 0.0 0.00 0.00 0.00 89 1050.0
20260902100052 23 324 0.0 0.0 0.00 0.00 0.00 89 1049.9
20260902095552 23 324 0.0 0.0 0.00 0.00 0.00 89 1050.0
20260902095051 23 292 0.0 0.0 0.00 0.00 0.00 89 1050.0
20260902094546 23 314 0.0 0.0 0.00 0.00 0.00 89 1049.9
20260902094042 23 321 0.0 0.0 0.00 0.00 0.00 88 1049.8
20260902093537 23 310 0.0 0.0 0.00 0.00 0.00 88 1050.1
20260902093036 23 309 0.0 0.0 0.00 0.00 0.00 88 1049.9
20260902092532 23 275 0.0 0.0 0.00 0.00 0.00 88 1049.9
20260902092026 23 311 0.0 0.0 0.00 0.00 0.00 88 1049.8
20260902091522 23 318 0.0 0.0 0.00 0.00 0.00 88 1049.7
20260902091018 23 289 0.0 0.0 0.00 0.00 0.00 88 1049.9
20260902090514 23 317 0.0 0.0 0.00 0.00 0.00 88 1050.1
20260902090013 23 323 0.0 0.0 0.00 0.00 0.00 88 1050.1
20260902085513 23 322 0.0 0.0 0.00 0.00 0.00 88 1050.1
20260902085008 23 329 0.0 0.0 0.00 0.00 0.00 87 1050.2
20260902084504 23 327 0.0 0.0 0.00 0.00 0.00 87 1050.0
20260902083959 23 327 0.0 0.0 0.00 0.00 0.00 87 1049.8
20260902083455 24 331 0.0 0.0 0.00 0.00 0.00 87 1049.6
20260902082949 24 325 0.0 0.0 0.00 0.00 0.00 87 1049.7
20260902082445 24 297 0.0 0.0 0.00 0.00 0.00 87 1049.6
20260902081941 24 295 0.0 0.0 0.00 0.00 0.00 87 1049.7
20260902081437 23 325 0.0 0.0 0.00 0.00 0.00 87 1049.4
20260902080932 23 308 0.0 0.0 0.00 0.00 0.00 87 1049.5
20260902080428 23 299 0.0 0.0 0.00 0.00 0.00 87 1049.4
20260902075928 23 316 0.0 0.0 0.00 0.00 0.00 88 1049.4
20260902075424 23 320 0.0 0.0 0.00 0.00 0.00 87 1049.7
20260902074919 23 327 0.0 0.0 0.00 0.00 0.00 87 1049.6
20260902074415 24 320 0.0 0.0 0.00 0.00 0.00 87 1049.7
20260902073909 24 325 0.0 0.0 0.00 0.00 0.00 86 1049.6
20260902073406 24 324 0.0 0.0 0.00 0.00 0.00 86 1049.6
20260902072901 24 316 0.0 0.0 0.00 0.00 0.00 87 1049.7
20260902072357 24 323 0.0 0.0 0.00 0.00 0.00 86 1049.4
20260902071853 24 331 0.0 0.0 0.00 0.00 0.00 86 1049.6
20260902071353 24 331 0.0 0.0 0.00 0.00 0.00 85 1049.6
20260902070849 25 331 0.0 0.0 0.00 0.00 0.00 85 1049.9
20260902070344 25 330 0.0 0.0 0.00 0.00 0.00 84 1049.5
20260902065842 25 324 0.0 0.0 0.00 0.00 0.00 84 1049.4
20260902065338 25 315 0.0 0.0 0.00 0.00 0.00 83 1049.5
20260902064833 25 332 0.0 0.0 0.00 0.00 0.00 83 1049.3
20260902064330 25 321 0.0 0.0 0.00 0.00 0.00 82 1049.2
20260902063825 25 247 0.0 0.0 0.00 0.00 0.00 82 1049.2
20260902063325 25 307 0.0 0.0 0.00 0.00 0.00 82 1049.3
20260902062819 25 293 0.0 0.0 0.00 0.00 0.00 82 1049.2
20260902062314 25 310 0.0 0.0 0.00 0.00 0.00 82 1049.4
20260902061813 25 287 0.0 0.0 0.00 0.00 0.00 82 1049.3
20260902061309 25 312 0.0 0.0 0.00 0.00 0.00 82 1049.3
20260902060805 25 326 0.0 0.0 0.00 0.00 0.00 82 1049.4
20260902060301 25 319 0.0 0.0 0.00 0.00 0.00 82 1049.5
20260902055756 25 319 0.0 0.0 0.00 0.00 0.00 82 1049.3
20260902055253 26 305 0.0 0.0 0.00 0.00 0.00 82 1049.2
20260902054753 26 318 0.0 0.0 0.00 0.00 0.00 82 1049.2
20260902054248 26 323 0.0 0.0 0.00 0.00 0.00 81 1049.2
20260902053743 26 307 0.0 0.0 0.00 0.00 0.00 82 1049.2
20260902053243 26 328 0.0 0.0 0.00 0.00 0.00 82 1049.1
20260902052737 26 323 0.0 0.0 0.00 0.00 0.00 81 1049.2
20260902052232 26 305 0.0 0.0 0.00 0.00 0.00 81 1049.1